Weather History for Athens, OH

Change the Weather History Date:

Sunday, January 20, 2013

  Actual Average (KPKB) Record (KPKB)
Temperature  
Mean Temperature 34 °F 31 °F  
Max Temperature 45 °F 40 °F 71 °F (1906)
Min Temperature 24 °F 23 °F -18 °F (1985)
Degree Days  
Heating Degree Days 30 34  
Month to date heating degree days 673  
Since 1 July heating degree days 2583  
Cooling Degree Days 0 0  
Month to date cooling degree days 0  
Year to date cooling degree days 0  
Moisture  
Dew Point 18 °F    
Average Humidity 47    
Maximum Humidity 71    
Minimum Humidity 34    
Precipitation  
Precipitation 0.00 in 0.10 in 0.40 in (2011)
Month to date precipitation 1.89  
Year to date precipitation 1.89  
Sea Level Pressure  
Sea Level Pressure 30.08 in    
Wind  
Wind Speed 11 mph (West)    
Max Wind Speed 21 mph    
Max Gust Speed 37 mph    
Visibility 10 miles    
Events      
T = Trace of Precipitation, MM = Missing Value Source: NWS Daily Summary

Daily Weather History Graph

Daily Weather History Graph

Search for Another Location

Airport:

Trip Planner

Search our weather history database for the weather conditions in past years. The results will help you decide how hot, cold, wet, or windy it might be!

Date:

Astronomy

Jan. 20, 2013 Rise Set
Actual Time 7:44 AM EST 5:36 PM EST
Civil Twilight 7:15 AM EST 6:05 PM EST
Nautical Twilight 6:42 AM EST 6:37 PM EST
Astronomical Twilight 6:10 AM EST 7:09 PM EST
Moon 12:36 PM EST 2:15 AM EST
Length of Visible Light 10h 49m
Length of Day
9h 51m
Waxing Gibbous, 66% of the Moon is Illuminated
Jan 20
Waxing Gibbous
Jan 26
Full
Feb 3
Last Quarter
Feb 10
New
Feb 17
First Quarter

Hourly Weather History & Observations

Time (EST) Temp. Windchill Dew Point Humidity Pressure Visibility Wind Dir Wind Speed Gust Speed Precip Events Conditions
12:15 AM 45.0 °F 40.6 °F 25.9 °F 47% 29.93 in 10.0 mi SW 8.1 mph - N/A   Clear
12:35 AM 45.0 °F 40.6 °F 25.9 °F 47% 29.93 in 10.0 mi SW 8.1 mph - N/A   Clear
1:15 AM 44.8 °F 40.4 °F 26.2 °F 48% 29.92 in 10.0 mi SW 8.1 mph - N/A   Clear
1:35 AM 44.6 °F 38.4 °F 26.8 °F 50% 29.92 in 10.0 mi SW 12.7 mph - N/A   Clear
1:55 AM 44.8 °F 39.0 °F 27.3 °F 50% 29.92 in 10.0 mi SW 11.5 mph - N/A   Clear
2:15 AM 45.5 °F 38.9 °F 28.0 °F 51% 29.92 in 10.0 mi WSW 15.0 mph 21.9 mph N/A   Clear
2:35 AM 45.5 °F 38.9 °F 28.6 °F 52% 29.92 in 10.0 mi SW 15.0 mph 23.0 mph N/A   Clear
2:55 AM 45.5 °F 39.6 °F 28.9 °F 52% 29.92 in 10.0 mi SW 12.7 mph 20.7 mph N/A   Clear
3:15 AM 45.5 °F 38.6 °F 29.1 °F 53% 29.92 in 10.0 mi SW 16.1 mph 20.7 mph N/A   Clear
3:35 AM 45.0 °F 38.9 °F 29.3 °F 54% 29.93 in 10.0 mi SW 12.7 mph 19.6 mph N/A   Clear
3:55 AM 44.8 °F 39.0 °F 29.3 °F 55% 29.93 in 10.0 mi SW 11.5 mph 20.7 mph N/A   Clear
4:15 AM 44.2 °F 37.6 °F 29.7 °F 57% 29.93 in 10.0 mi WSW 13.8 mph 20.7 mph N/A   Clear
4:35 AM 43.7 °F 36.3 °F 30.0 °F 59% 29.93 in 10.0 mi WSW 16.1 mph 20.7 mph N/A   Clear
4:55 AM 43.0 °F 36.4 °F 30.2 °F 61% 29.94 in 10.0 mi WSW 12.7 mph 20.7 mph N/A   Clear
5:15 AM 43.2 °F 36.6 °F 30.6 °F 61% 29.94 in 10.0 mi WSW 12.7 mph 17.3 mph N/A   Mostly Cloudy
5:35 AM 43.7 °F 37.3 °F 30.7 °F 60% 29.95 in 10.0 mi WSW 12.7 mph 24.2 mph N/A   Mostly Cloudy
5:55 AM 43.3 °F 36.8 °F 30.9 °F 62% 29.95 in 10.0 mi WSW 12.7 mph 21.9 mph N/A   Scattered Clouds
6:15 AM 43.3 °F 37.2 °F 31.6 °F 63% 29.96 in 10.0 mi WSW 11.5 mph - N/A   Mostly Cloudy
6:35 AM 42.6 °F 35.2 °F 31.3 °F 64% 29.97 in 10.0 mi WSW 15.0 mph 19.6 mph N/A   Mostly Cloudy
6:55 AM 42.3 °F 33.3 °F 21.6 °F 44% 29.99 in 10.0 mi West 20.7 mph 36.8 mph N/A   Scattered Clouds
7:15 AM 40.6 °F 33.0 °F 19.2 °F 42% 29.99 in 10.0 mi West 13.8 mph 25.3 mph N/A   Clear
7:35 AM 39.7 °F 30.3 °F 19.9 °F 45% 30.00 in 10.0 mi West 19.6 mph 24.2 mph N/A   Clear
7:55 AM 38.8 °F 31.6 °F 19.4 °F 46% 30.02 in 10.0 mi West 11.5 mph 27.6 mph N/A   Clear
8:15 AM 38.5 °F 30.3 °F 17.2 °F 42% 30.03 in 10.0 mi WNW 13.8 mph 24.2 mph N/A   Clear
8:35 AM 37.9 °F 28.2 °F 13.1 °F 36% 30.06 in 10.0 mi West 18.4 mph 26.5 mph N/A   Clear
8:55 AM 37.4 °F 26.9 °F 12.2 °F 36% 30.07 in 10.0 mi West 20.7 mph 29.9 mph N/A   Clear
9:15 AM 37.2 °F 27.0 °F 15.3 °F 41% 30.09 in 10.0 mi West 19.6 mph 25.3 mph N/A   Clear
9:35 AM 36.3 °F 27.5 °F 14.5 °F 41% 30.11 in 10.0 mi NW 13.8 mph 19.6 mph N/A   Clear
9:55 AM 35.4 °F 27.3 °F 12.9 °F 40% 30.11 in 10.0 mi WNW 11.5 mph 19.6 mph N/A   Clear
10:15 AM 34.9 °F 24.9 °F 10.4 °F 36% 30.13 in 10.0 mi WNW 16.1 mph 24.2 mph N/A   Clear
10:35 AM 34.7 °F 25.5 °F 10.0 °F 36% 30.14 in 10.0 mi WNW 13.8 mph 18.4 mph N/A   Clear
10:55 AM 34.7 °F 25.9 °F 10.8 °F 37% 30.15 in 10.0 mi WNW 12.7 mph 20.7 mph N/A   Clear
11:15 AM 34.9 °F 26.2 °F 11.1 °F 37% 30.15 in 10.0 mi West 12.7 mph 18.4 mph N/A   Clear
11:35 AM 35.6 °F 25.5 °F 10.8 °F 36% 30.16 in 10.0 mi West 17.3 mph 23.0 mph N/A   Clear
11:55 AM 35.6 °F 26.2 °F 12.4 °F 38% 30.16 in 10.0 mi West 15.0 mph 20.7 mph N/A   Clear
12:15 PM 36.0 °F 27.1 °F 13.3 °F 39% 30.15 in 10.0 mi NW 13.8 mph 19.6 mph N/A   Clear
12:35 PM 35.1 °F 25.2 °F 11.5 °F 38% 30.14 in 10.0 mi West 16.1 mph 21.9 mph N/A   Clear
1:15 PM 35.2 °F 26.6 °F 11.5 °F 37% 30.15 in 10.0 mi NW 12.7 mph 21.9 mph N/A   Clear
1:35 PM 35.6 °F 27.5 °F 11.8 °F 38% 30.15 in 10.0 mi WNW 11.5 mph 18.4 mph N/A   Clear
1:55 PM 35.6 °F 29.2 °F 11.5 °F 37% 30.14 in 10.0 mi NW 8.1 mph - N/A   Clear
2:15 PM 36.1 °F 29.3 °F 12.7 °F 38% 30.14 in 10.0 mi WNW 9.2 mph 17.3 mph N/A   Clear
2:35 PM 36.1 °F 28.7 °F 12.9 °F 39% 30.14 in 10.0 mi WNW 10.4 mph 13.8 mph N/A   Clear
2:55 PM 36.5 °F 31.8 °F 11.8 °F 36% 30.14 in 10.0 mi West 5.8 mph - N/A   Clear
3:15 PM 36.3 °F 28.9 °F 11.7 °F 36% 30.14 in 10.0 mi West 10.4 mph 17.3 mph N/A   Clear
3:35 PM 36.7 °F 28.4 °F 10.2 °F 34% 30.14 in 10.0 mi West 12.7 mph - N/A   Clear
4:15 PM 36.0 °F 28.0 °F 9.7 °F 34% 30.14 in 10.0 mi WSW 11.5 mph - N/A   Clear
4:35 PM 35.6 °F 28.0 °F 10.8 °F 36% 30.14 in 10.0 mi WSW 10.4 mph - N/A   Clear
4:55 PM 34.9 °F 26.6 °F 10.9 °F 37% 30.14 in 10.0 mi West 11.5 mph - N/A   Clear
5:15 PM 34.0 °F 28.0 °F 11.8 °F 40% 30.15 in 10.0 mi West 6.9 mph - N/A   Clear
5:35 PM 33.1 °F 27.7 °F 11.8 °F 41% 30.15 in 10.0 mi WNW 5.8 mph - N/A   Clear
5:55 PM 32.2 °F 26.7 °F 12.0 °F 43% 30.15 in 10.0 mi WNW 5.8 mph - N/A   Clear
6:15 PM 32.0 °F 28.7 °F 11.5 °F 43% 30.16 in 10.0 mi WNW 3.5 mph - N/A   Clear
6:35 PM 32.0 °F 25.6 °F 11.7 °F 43% 30.16 in 10.0 mi NW 6.9 mph - N/A   Clear
6:55 PM 31.3 °F 26.6 °F 13.3 °F 47% 30.17 in 10.0 mi NW 4.6 mph - N/A   Clear
7:15 PM 31.1 °F 27.7 °F 13.5 °F 48% 30.17 in 10.0 mi WNW 3.5 mph - N/A   Mostly Cloudy
7:35 PM 30.9 °F 26.2 °F 12.9 °F 47% 30.17 in 10.0 mi NW 4.6 mph - N/A   Mostly Cloudy
7:55 PM 30.2 °F - 12.9 °F 49% 30.17 in 10.0 mi Calm Calm - N/A   Mostly Cloudy
8:15 PM 30.2 °F 25.4 °F 12.6 °F 48% 30.17 in 10.0 mi NNW 4.6 mph - N/A   Clear
8:35 PM 30.0 °F 25.2 °F 12.6 °F 48% 30.16 in 10.0 mi NNW 4.6 mph - N/A   Clear
8:55 PM 29.7 °F 26.1 °F 12.6 °F 49% 30.16 in 10.0 mi NW 3.5 mph - N/A   Mostly Cloudy
9:15 PM 29.3 °F - 12.2 °F 49% 30.16 in 10.0 mi Calm Calm - N/A   Mostly Cloudy
9:35 PM 28.8 °F - 12.6 °F 51% 30.16 in 10.0 mi Calm Calm - N/A   Scattered Clouds
9:55 PM 28.0 °F - 13.3 °F 54% 30.16 in 10.0 mi Calm Calm - N/A   Clear
10:15 PM 26.4 °F - 13.8 °F 59% 30.16 in 10.0 mi Calm Calm - N/A   Clear
10:35 PM 24.8 °F - 14.7 °F 66% 30.16 in 10.0 mi Calm Calm - N/A   Clear
10:55 PM 25.5 °F - 14.5 °F 63% 30.16 in 10.0 mi Calm Calm - N/A   Clear
11:15 PM 25.9 °F - 13.8 °F 60% 30.16 in 10.0 mi Calm Calm - N/A   Scattered Clouds
11:35 PM 25.3 °F - 16.0 °F 68% 30.15 in 10.0 mi Calm Calm - N/A   Overcast
11:55 PM 25.0 °F - 16.7 °F 71% 30.15 in 10.0 mi Calm Calm - N/A   Mostly Cloudy